DW9005 Weather Reports


Display with metric or nautical units.
time (UTC)temp
F
wind
direction
speed
MPH
gust
MPH
rain 1hr
in
rain 24hr
in
rain mn
in
humidity
%
barometer
mb
20260903050038 78 0.0 0.0 0.00 0.00 0.00 93 1016.2
20260903044550 78 0.0 0.0 0.00 0.00 0.00 92 1016.1
20260903043024 78 0.0 0.0 0.00 0.00 0.00 92 1016.2
20260903041518 78 0.0 0.0 0.00 0.00 0.00 91 1016.2
20260903040003 78 0.0 0.0 0.00 0.00 0.00 91 1016.0
20260903034502 79 0.0 0.0 0.00 0.00 0.00 90 1016.1
20260903033043 79 0.0 0.0 0.00 0.00 0.00 90 1016.1
20260903031542 80 0.0 0.0 0.00 0.00 0.00 89 1016.2
20260903030036 80 0.0 0.0 0.00 0.00 0.00 88 1016.2
20260903024536 80 0.0 0.0 0.00 0.00 0.00 87 1016.2
20260903023010 80 0.0 0.0 0.00 0.00 0.00 87 1016.3
20260903021509 81 0.0 0.0 0.00 0.00 0.00 86 1016.2
20260903020049 81 0.0 0.0 0.00 0.00 0.00 85 1016.1
20260903014550 82 0.0 0.0 0.00 0.00 0.00 84 1015.9
20260903013030 82 0.0 0.0 0.00 0.00 0.00 83 1015.7
20260903011539 83 0.0 0.0 0.00 0.00 0.00 82 1015.7
20260903010013 84 0.0 0.0 0.00 0.00 0.00 80 1015.4
20260903004525 85 0.0 0.0 0.00 0.00 0.00 77 1015.3
20260903003059 86 0.0 0.0 0.00 0.00 0.00 75 1015.3
20260903001554 87 0.0 0.0 0.00 0.00 0.00 72 1015.3
20260903000036 89 0.0 0.0 0.00 0.00 0.00 71 1015.2
20260902234536 91 0.0 0.0 0.00 0.00 0.00 64 1015.2
20260902233028 92 0.0 0.0 0.00 0.00 0.00 59 1015.1
20260902231518 93 0.0 0.0 0.00 0.00 0.00 58 1015.1
20260902230100 94 0.0 0.0 0.00 0.00 0.00 56 1015.1
20260902224600 95 0.0 0.0 0.00 0.00 0.00 55 1015.2
20260902223041 95 0.0 0.0 0.00 0.00 0.00 57 1015.3
20260902221541 95 0.0 0.0 0.00 0.00 0.00 54 1015.3
20260902220029 95 0.0 0.0 0.00 0.00 0.00 55 1015.4
20260902214522 95 0.0 0.0 0.00 0.00 0.00 55 1015.5
20260902213011 95 0.0 0.0 0.00 0.00 0.00 54 1015.6
20260902211510 95 0.0 0.0 0.00 0.00 0.00 52 1015.5
20260902210009 95 0.0 0.0 0.00 0.00 0.00 52 1015.6
20260902204511 96 0.0 0.0 0.00 0.00 0.00 50 1015.8
20260902203004 96 0.0 0.0 0.00 0.00 0.00 51 1016.0
20260902201502 95 0.0 0.0 0.00 0.00 0.00 50 1016.2
20260902200002 96 0.0 0.0 0.00 0.00 0.00 55 1016.3
20260902194601 96 0.0 0.0 0.00 0.00 0.00 56 1016.4
20260902193040 95 0.0 0.0 0.00 0.00 0.00 54 1016.8
20260902191638 96 0.0 0.0 0.00 0.00 0.00 54 1016.9
20260902190018 94 0.0 0.0 0.00 0.00 0.00 54 1017.1
20260902184518 94 0.0 0.0 0.00 0.00 0.00 55 1017.4
20260902183059 93 0.0 0.0 0.00 0.00 0.00 55 1017.5
20260902181612 93 0.0 0.0 0.00 0.00 0.00 57 1017.7
20260902180044 93 0.0 0.0 0.00 0.00 0.00 57 1017.7
20260902174538 93 0.0 0.0 0.00 0.00 0.00 56 1017.9
20260902173021 92 0.0 0.0 0.00 0.00 0.00 59 1018.1
20260902171521 93 0.0 0.0 0.00 0.00 0.00 56 1018.4
20260902170002 92 0.0 0.0 0.00 0.00 0.00 60 1018.5
20260902164502 93 0.0 0.0 0.00 0.00 0.00 59 1018.8
20260902163100 93 0.0 0.0 0.00 0.00 0.00 58 1018.8
20260902161541 92 0.0 0.0 0.00 0.00 0.00 60 1019.0
20260902160037 91 0.0 0.0 0.00 0.00 0.00 61 1019.1
20260902154520 90 0.0 0.0 0.00 0.00 0.00 63 1019.3
20260902153017 89 0.0 0.0 0.00 0.00 0.00 68 1019.2
20260902151558 88 0.0 0.0 0.00 0.00 0.00 70 1019.3
20260902150052 88 0.0 0.0 0.00 0.00 0.00 74 1019.2
20260902144529 86 0.0 0.0 0.00 0.00 0.00 76 1019.2
20260902143027 86 0.0 0.0 0.00 0.00 0.00 77 1019.1
20260902141515 84 0.0 0.0 0.00 0.00 0.00 81 1019.1
20260902140001 82 0.0 0.0 0.00 0.00 0.00 83 1019.0
20260902134541 80 0.0 0.0 0.00 0.00 0.00 89 1019.0
20260902133037 78 0.0 0.0 0.00 0.00 0.00 93 1019.1
20260902131515 76 0.0 0.0 0.00 0.00 0.00 94 1019.0
20260902130013 75 0.0 0.0 0.00 0.00 0.00 95 1019.0
20260902124602 74 0.0 0.0 0.00 0.00 0.00 95 1019.0
20260902123053 73 0.0 0.0 0.00 0.00 0.00 95 1018.9
20260902121538 73 0.0 0.0 0.00 0.00 0.00 95 1018.9
20260902120033 73 0.0 0.0 0.00 0.00 0.00 95 1018.8
20260902114514 72 0.0 0.0 0.00 0.00 0.00 95 1018.5
20260902113014 72 0.0 0.0 0.00 0.00 0.00 95 1018.5
20260902111558 73 0.0 0.0 0.00 0.00 0.00 95 1018.4
20260902110055 73 0.0 0.0 0.00 0.00 0.00 95 1018.3
20260902104539 73 0.0 0.0 0.00 0.00 0.00 95 1018.2
20260902103043 73 0.0 0.0 0.00 0.00 0.00 95 1018.0
20260902101525 73 0.0 0.0 0.00 0.00 0.00 95 1018.0
20260902100015 73 0.0 0.0 0.00 0.00 0.00 95 1018.0
20260902094556 73 0.0 0.0 0.00 0.00 0.00 95 1017.7
20260902093130 73 0.0 0.0 0.00 0.00 0.00 95 1017.6
20260902091544 73 0.0 0.0 0.00 0.00 0.00 95 1017.4
20260902090033 74 0.0 0.0 0.00 0.00 0.00 95 1017.3
20260902084516 74 0.0 0.0 0.00 0.00 0.00 95 1017.2
20260902083013 74 0.0 0.0 0.00 0.00 0.00 95 1017.1
20260902081613 74 0.0 0.0 0.00 0.00 0.00 95 1017.0
20260902080054 74 0.0 0.0 0.00 0.00 0.00 95 1017.0
20260902074535 74 0.0 0.0 0.00 0.00 0.00 94 1016.9
20260902073036 74 0.0 0.0 0.00 0.00 0.00 94 1016.8
20260902071515 75 0.0 0.0 0.00 0.00 0.00 94 1016.9
20260902070020 75 0.0 0.0 0.00 0.00 0.00 94 1016.9
20260902064617 75 0.0 0.0 0.00 0.00 0.00 94 1017.0
20260902063059 75 0.0 0.0 0.00 0.00 0.00 94 1017.0
20260902060110 75 0.0 0.0 0.00 0.00 0.00 94 1017.2
20260902054559 76 0.0 0.0 0.00 0.00 0.00 94 1017.3
20260902053056 76 0.0 0.0 0.00 0.00 0.00 94 1017.3
20260902051557 76 0.0 0.0 0.00 0.00 0.00 94 1017.2